This is the latest recevied weather packets stored in our database for station/object AI5KP-13. If no packets are shown the sender has not sent any weather packets the latest 10 day(s).
| Time | Temp. | Humidity | Pressure | Rain* | Wind** | Luminosity | Snow |
|---|---|---|---|---|---|---|---|
| 1777820667 | 20° C | 48% | 1018.7 hPa | 0 mm | - | 500 W/m² | - |
| 1777820357 | 19.44° C | 47% | 1018.8 hPa | 0 mm | - | 489 W/m² | - |
| 1777820055 | 19.44° C | 46% | 1018.7 hPa | 0 mm | - | 475 W/m² | - |
| 1777819752 | 18.89° C | 46% | 1018.8 hPa | 0 mm | - | 461 W/m² | - |
| 1777819450 | 17.78° C | 48% | 1018.8 hPa | 0 mm | - | 447 W/m² | - |
| 1777819148 | 17.78° C | 47% | 1018.9 hPa | 0 mm | - | 432 W/m² | - |
| 1777818844 | 17.78° C | 48% | 1018.8 hPa | 0 mm | - | 417 W/m² | - |
| 1777818539 | 17.22° C | 48% | 1018.8 hPa | 0 mm | - | 403 W/m² | - |
| 1777818238 | 17.22° C | 48% | 1018.9 hPa | 0 mm | - | 388 W/m² | - |
| 1777817933 | 17.22° C | 48% | 1018.7 hPa | 0 mm | - | 374 W/m² | - |
| 1777817631 | 16.67° C | 48% | 1019.1 hPa | 0 mm | - | 358 W/m² | - |
| 1777817327 | 16.67° C | 49% | 1018.8 hPa | 0 mm | - | 341 W/m² | - |
| 1777817024 | 16.11° C | 49% | 1018.8 hPa | 0 mm | - | 327 W/m² | - |
| 1777816720 | 15.56° C | 50% | 1018.9 hPa | 0 mm | - | 311 W/m² | - |
| 1777816418 | 15.56° C | 51% | 1018.8 hPa | 0 mm | - | 296 W/m² | - |
| 1777816116 | 15.56° C | 51% | 1018.8 hPa | 0 mm | - | 281 W/m² | - |
| 1777815813 | 15° C | 52% | 1018.9 hPa | 0 mm | - | 268 W/m² | - |
| 1777815510 | 15° C | 53% | 1019 hPa | 0 mm | - | 253 W/m² | - |
| 1777815208 | 14.44° C | 53% | 1019.1 hPa | 0 mm | - | 238 W/m² | - |
| 1777814904 | 14.44° C | 54% | 1018.9 hPa | 0 mm | - | 224 W/m² | - |
| 1777814600 | 14.44° C | 53% | 1019.1 hPa | 0 mm | - | 209 W/m² | - |
| 1777814298 | 13.89° C | 54% | 1018.9 hPa | 0 mm | - | 196 W/m² | - |
| 1777813994 | 13.89° C | 54% | 1019 hPa | 0 mm | - | 183 W/m² | - |
| 1777813691 | 13.89° C | 56% | 1019 hPa | 0 mm | - | 169 W/m² | - |
| 1777813389 | 13.33° C | 58% | 1018.8 hPa | 0 mm | - | 148 W/m² | - |
* Rain latest hour (hover to see other rain measurements)
** Current wind speed in m/s (hover to see current wind gust speed)